Flag for Yemen Weather past 2 weeks in Al Hudaydah, Yemen

Now
93 °F

Sandstorm.


Feels Like: 98 °F
Forecast: 87 / 98 °F
Wind: 10 mph from North

Location: Hodeidah

Current Time: Sep 2, 2014 at 10:41:02 PM

Latest Report: Sep 2, 2014 at 10:00 PM


Visibility: 1 mi

Pressure: 29.62 "Hg

Humidity: 44%

Dew point: 68 °F

Location of Al HudaydahLocation

Historic Weather in Al Hudaydah — Graph

°F

Al Hudaydah temperature yesterday

Maximum temperature yesterday: 97 °F (at 12:00 PM)
Minimum temperature yesterday: 88 °F (at 6:00 AM)
Average temperature yesterday: 93 °F

Past Weeks' High & Low Weather Summary

 TemperatureHumidityPressure
High100 °F (Aug 23, 12:00 PM)94% (Aug 26, 6:00 AM)29.77 "Hg (Aug 26, 6:00 AM)
Low73 °F (Aug 25, 7:00 PM)35% (Aug 23, 12:00 PM)29.53 "Hg (Aug 23, 6:00 PM)
Average91 °F65%29.64 "Hg
* Reported Aug 18 9:00 PM — Sep 2 9:00 PM, Al Hudaydah, Weather by CustomWeather, © 2014

Note: Actual official high and low records may vary slightly from our data, if they occured in-between our weather recording intervals... More about our weather records

Advertising

Al Hudaydah weather history for previous 24 hours

 ConditionsComfort  
Time TempWeatherWind HumidityBarometerVisibility
9:00 PM
Sep 2
91 °FLow level haze.21 mph44%29.62 "Hg1 mi
8:00 PM93 °FSandstorm.3 mph44%29.59 "Hg0 mi
7:00 PM95 °FSandstorm.7 mph36%29.59 "Hg0 mi
6:00 PM93 °FScattered clouds.17 mph67%29.56 "Hg4 mi
5:00 PM93 °FPassing clouds.21 mph67%29.56 "Hg5 mi
4:00 PM95 °FPassing clouds.17 mph67%29.56 "Hg5 mi
3:00 PM95 °FScattered clouds.18 mph67%29.56 "Hg5 mi
2:00 PM95 °FPassing clouds.16 mph63%29.59 "Hg5 mi
1:00 PM95 °FPassing clouds.10 mph60%29.62 "Hg4 mi
12:00 PM95 °FPassing clouds.10 mph63%29.65 "HgN/A
11:00 AM95 °FPassing clouds.8 mph63%29.68 "HgN/A
10:00 AM93 °FPassing clouds.6 mph67%29.68 "HgN/A
9:00 AM93 °FScattered clouds.5 mph71%29.68 "HgN/A
8:00 AM88 °FScattered clouds.No wind84%29.68 "HgN/A
7:00 AM86 °FScattered clouds.3 mph89%29.65 "HgN/A
6:00 AM86 °FHaze.No wind84%29.62 "Hg3 mi
5:00 AM88 °FClear.3 mph79%29.59 "Hg10 mi
4:00 AM88 °FClear.2 mph79%29.59 "Hg10 mi
2:00 AM90 °FClear.2 mph79%29.59 "Hg10 mi
1:00 AM91 °FClear.5 mph75%29.59 "Hg10 mi
12:00 AM91 °FClear.7 mph80%29.62 "Hg10 mi
11:00 PM
Sep 1
91 °FPassing clouds.14 mph75%29.62 "HgN/A
10:00 PM91 °FPassing clouds.10 mph71%29.62 "HgN/A
Weather by CustomWeather, © 2014

See weather overviewHow to use our weather pages